Погода в Тоганашеве

Россия / Чувашская Республика     55°48′07″N   48°09′14″E
темп.,
°C
ветер,
м/с
пор.,
м/с
влажн.,
%
обл.,
%
осадки,
мм/ч
давл.,
гПа
погр.,
м
28 февраля, вс
вс2800:00−17ссз6109698 0.0 1006258
03:00−18ссз6129699 0.1 1007265
06:00−20ссз5109779 0.0 1008236
09:00−19ссз599575 0.0 1009264
12:00−15ссз589386 0.0 1011391
15:00−13ссз599093 0.0 1012525
18:00−16с479593 0.0 1014119
21:00−19ссз469748 0.0 101781
1 марта, пн
пн100:00−21ссз34980 0.0 101848
03:00−22ссз33980 0.0 102032
06:00−23ссз33990 0.0 102131
09:00−20ссз23970 0.0 1022123
12:00−16зсз238940 0.0 1022267
15:00−14з349256 0.0 1021256
18:00−16юз339531 0.0 101928
21:00−14юз379563 0.0 1018147
2 марта, вт
вт200:00−12ююз51095100 0.0 1014272
03:00−10ююз61194100 0.2 1010342
06:00−7юз61295100 1.0 1005505
09:00−3юз61296100 2.1 1002577
12:000юз61199100 1.0 999603
15:000з47100100 1.8 998440
18:00−1з379797 0.2 998218
21:00−1ссз7129598 0.8 999680
3 марта, ср
ср300:00−5сз5119465 0.1 1000227
03:00−6сз499761 0.1 1001194
06:00−6сз499690 0.1 1001224
09:00−5сз599592 0.2 1003389
12:00−2ссз589399 0.4 1004642
15:00−2ссз699499 0.7 1006765
18:00−7сз5108867 0.2 1008213
21:00−9сз5129344 0.2 1010280
4 марта, чт
чт400:00−8сз5119490 0.1 1011422
03:00−11сз499690 0.1 1012218
06:00−13зсз479692 0.1 1013109
09:00−11зсз489476 0.1 1013254
12:00−8з589270 0.0 1013340
15:00−5юз598944 0.0 1011510
18:00−4юз6129196 0.0 1008650
21:00−2юз7148998 0.1 1006738